Location: Newark
(48.6461°N, 4.3644°W)
Time: 18:01:25
(UTC+00:00)

Transit 4A - Pass Details

Date: 28 January 2020
Orbit: 872 x 973 km, 66.8° (Epoch: 22 February)

Event Time Altitude Azimuth Distance (km) Brightness Sun altitude
Rises 13:43:03 0° 326° (NW) 3,476 10.6 21.2°
Reaches altitude 10° 13:45:39 10° 332° (NNW) 2,532 9.9 21.0°
Maximum altitude 13:51:15 46° 45° (NE) 1,162 8.3 20.7°
Drops below altitude 10° 13:56:52 10° 119° (ESE) 2,534 10.3 20.4°
Sets 13:59:28 0° 125° (SE) 3,479 11.1 20.2°
